Regional Weather Roundup
Issued by NWS

Home | Current Version | Previous Version | Text Only | Print | Product List | Glossary On
Versions: 1 2 3 4 5 6 7 8 9 10 11 12 13 14 15 16 17 18 19 20 21 22 23 24 25 26 27 28 29 30 31 32 33 34 35 36 37 38 39 40 41 42 43 44 45 46 47 48 49 50
000
ASHW40 PHFO 290830
RWRHI

WEATHER ROUNDUP FOR HAWAII
NATIONAL WEATHER SERVICE HONOLULU HI
1000 PM HST WED JAN 28 2015

THIS IS AN AUTOMATED REPORT THAT HAS NOT BEEN QUALITY CONTROLLED.

NOTE..."FAIR" INDICATES FEW OR NO CLOUDS BELOW 12,000 FEET WITH NO
SIGNIFICANT WEATHER AND/OR OBSTRUCTIONS TO VISIBILITY.

* - THESE SITES REPORT LIMITED FIELDS

HIZ001>004-290900-
KAUAI-NIIHAU-

CITY           SKY/WX    TMP DP  RH WIND       PRES   REMARKS
LIHUE APT      CLOUDY    69  64  84 W5        29.95S
PORT ALLEN*      N/A     66 N/A N/A NE5         N/A
POIPU*           N/A     66 N/A N/A NW2         N/A
PRINCEVILLE*     N/A     66 N/A N/A MISG        N/A
KOKOLE POINT*  NOT AVBL
MOLOAA DAIRY*  NOT AVBL
WAIMEA HTS*    NOT AVBL
PUU OPAE*      NOT AVBL
PUU LUA*       NOT AVBL
MAKAHA RIDGE*  NOT AVBL
$$

HIZ005>011-290900-
OAHU-

CITY           SKY/WX    TMP DP  RH WIND       PRES   REMARKS
HONOLULU       MOCLDY    75  67  76 S5        29.94S
KALAELOA       CLOUDY    74  67  78 VRB6      29.96R
KANEOHE MCB    CLEAR     70  66  87 CALM      29.95R
WHEELER FIELD  DRIZZLE   66  63  88 CALM      29.96S
BELLOWS*         N/A    N/A N/A N/A SW3         N/A
KAHUKU*          N/A    N/A N/A N/A CALM        N/A
WHEELER*       NOT AVBL
WAIANAE HARBOR NOT AVBL
DILLINGHAM*      N/A     88  82  84 MISG        N/A  HX 108
KAHUKU TRN*      N/A     66  63  88 S3          N/A
KAWAILOA*        N/A     66  63  88 E5          N/A
KII*             N/A     68  64  88 S3          N/A
MAKUA RANGE*     N/A     70  64  83 E3          N/A
OAHU FOREST NW NOT AVBL
SCHOFIELD BRK*   N/A     64  61  88 CALM        N/A
SCHOFIELD S*   NOT AVBL
WAIANAE VLY*   NOT AVBL
KUAOKALA*      NOT AVBL
HONOULIUULI*   NOT AVBL
MOKUOLOE IS*   NOT AVBL
PALEHUA*       NOT AVBL
WAIAWA PHB*    NOT AVBL
$$

HIZ012>013-290900-
MOLOKAI-

CITY           SKY/WX    TMP DP  RH WIND       PRES   REMARKS
MOLOKAI AIRPT  PTCLDY    66  64  93 CALM      29.97R
KALAUPAPA      NOT AVBL
MAKAPULAPAI*   NOT AVBL
MOLOKAI 1*     NOT AVBL
PUU ALII*        N/A     53  53  99 CALM        N/A
$$

HIZ016-290900-
KAHOOLAWE-

CITY           SKY/WX    TMP DP  RH WIND       PRES   REMARKS
KAHOOLAWE*     NOT AVBL
HAKIOAWA*        N/A     66  63  91 MISG      30.38S
HONOKANAIA*      N/A     72  64  75 NE5       29.97R
KANELOA*         N/A     72  66  83 MISG      29.18S
KEALIALALO*    NOT AVBL
LUA MAKIKA*    NOT AVBL
$$

HIZ014>015-290900-
LANAI-

CITY           SKY/WX    TMP DP  RH WIND       PRES   REMARKS
LANAI CITY     FAIR      62  62 100 E3        30.01S
LANAI 1*       NOT AVBL
$$

HIZ017>028-290900-
MAUI-

CITY           SKY/WX    TMP DP  RH WIND       PRES   REMARKS
KAHULUI        CLEAR     66  62  87 SE6       29.95S
KAPALUA-W MAUI NOT AVBL
HANA AIRPORT   CLEAR     68  63  83 CALM      29.98S
HANA*            N/A     70 N/A N/A S3          N/A
HALEAKALA SUMM   N/A     45  10  24 S10         N/A
MAALAEA BAY*   NOT AVBL
HALEAKALA*     NOT AVBL
KAUPO GAP*     NOT AVBL
KULA 1*          N/A     48  36  61 NE3G9       N/A
$$

HIZ023>026-290900-
BIG ISLAND OF HAWAII COAST AND LOWER SLOPES-

CITY           SKY/WX    TMP DP  RH WIND       PRES   REMARKS
KAILUA KONA    CLEAR     75  64  68 CALM      29.95R
HILO           MOCLDY    69  65  86 S5        29.97S
HONOKAA*       NOT AVBL
KAWAIHAE MWT*    N/A     75 N/A N/A NE5         N/A
KAWAIHAE*        N/A     73 N/A N/A NE3         N/A
SOUTH POINT*     N/A     66 N/A N/A N6          N/A
UPOLU AIRPORT*   N/A    N/A N/A N/A SE8         N/A
KAMUELA*       NOT AVBL
HAKALAU*         N/A    N/A N/A N/A SW9         N/A
KALOKO-HONOKO*   N/A     72  63  73 NE5       29.94R
PALI 2*          N/A     61  57  88 SE1G7       N/A
KEALAKOMO*       N/A     73  66  78 NE3G9       N/A
KAUPULEHU*     NOT AVBL
KAPAPALA*        N/A     64  62  92 CALM        N/A
LOWER KAHUKU*    N/A     59  57  94 N1          N/A
PUHE CS*         N/A     73  64  73 NE2         N/A
PUHO CS*         N/A     74  62  65 E1          N/A
PTA KEAMUKU*     N/A     61  55  82 CALM        N/A
WAIKOLOA*      NOT AVBL
$$

HIZ027>028-290900-
BIG ISLAND OF HAWAII INTERIOR AND SUMMMITS-

CITY           SKY/WX    TMP DP  RH WIND       PRES   REMARKS
BRADSHAW FIELD CLOUDY    45  44  96 SE1       30.25S
MK VISITOR CEN NOT AVBL
MAUNA KEA*       N/A     30   1  29 NW9         N/A  WCI  22
MAUNA LOA*       N/A     39   7  26 MISG        N/A
MAUNA LOA 1*   NOT AVBL
PTA KIPUKA*      N/A     54  52  94 NE2         N/A
PTA RANGE 17*    N/A     52  50  93 N1          N/A
PTA WEST*        N/A     57  54  88 W2          N/A
NENE CABIN*      N/A    N/A N/A N/A N5          N/A
AHUMOA*        NOT AVBL
PTA PORTABLE*  NOT AVBL
PUU MALI*      NOT AVBL
$$

HIC003-290900-
NORTHWEST ISLANDS-

CITY           SKY/WX    TMP DP  RH WIND       PRES   REMARKS
MIDWAY ISLAND  LGT RAIN  57  41  54 N18G25    30.25R
MIDWAY NOS*    NOT AVBL
FRENCH FRIGATE NOT AVBL
$$

PHZ110>124-180-290900-
BUOY REPORTS

STATION/POSITION TIME  TEMP    WIND        PRES    WAVE   SWELL
                       AIR SEA DIR/SP/G            HT/PER HT/DIR
                 (UTC) (F)     (DEG/KT/KT) (MB)    (FT/S) (FT/D)
BUOY 51001       NOT AVBL
BUOY 51101       0800   69 73  340/ 14/ 17 1014.6R   8/14   8/320
BUOY 51100       NOT AVBL
BUOY 51003       0800   76 79  310/  4/  6 1014.0R   8/15   8
BUOY 51004       0704   76 78   80/ 10/ 12 1014.4R   6/17   5/340
BARBERS PT BUOY  NOT AVBL
WAIMEA BAY BUOY  0800      77                N/A     6/14   5/320
KAILUA BAY BUOY  0800      76                N/A     4/14   2/350
LANAI BUOY       0800      77                N/A     3/14   3/290
BARBERS PT 2     0800      77                N/A     4/17   3/310
PAUWELA MAUI     0800      76                N/A     7/15
HILO             0800      77                N/A     5/17
KANEOHE BAY BUOY 0800      76                N/A     3/15   2/350
HANALEI KAUAI    NOT AVBL
KAHULUI HARBOR   0800   70 76  130/  3/  4 1014.0R
HONOLULU HARBOR  0800   75 76  150/  3/  5 1013.9S
KILO NALU        NOT AVBL
HILO HARBOR      0800   71 76  200/  4/  5 1014.5R
MOKUOLOE         0800      76              1013.9R
NAWILIWILI       NOT AVBL
WHOTS BUOY       NOT AVBL
BUOY 51028       NOT AVBL
$$

......................KEY........................................
  SKY/WX - SKY CONDITIONS/PRESENT WEATHER
  TMP    - TEMPERATURE IN FAHRENHEIT
  DWPT   - DEWPOINT IN FAHRENHEIT
  RH     - RELATIVE HUMIDITY IN PERCENT
  WIND   - DIRECTION AND SPEED /MPH FOR ISLANDS...KTS FOR BUOYS/
  PRES   - MEAN SEA LEVEL PRESSURE IN INCHES OF HG
  VSB    - VISIBILITY IN MILES
  HX     - HEAT INDEX
  WCI    - WIND CHILL INDEX
  VRB    - VARIABLE WIND DIRECTION
  N/A    - NOT AVAILABLE


USA.gov is the U.S. government's official web portal to all federal, state and local government web resources and services.